Aérodrome :
LOGIN :

S'inscrire | Disclaimer

   EN    FR    IT 

 










Légende :    VFR   VFR Marginal   IFR   IFR Intensif   IFR Très Intensif
Visi : 
Plafond : 
>= 8 km
>= 3000ft
5 à 8 km
1000 à 3000 ft
1500m à 5 km
500 à 1000 ft
800 à 1500m
200 à 500 ft
< 800m
< 200 ft
Symboles :   Orages  Brouillard  Fortes neiges  Fortes précipitations  Vent > 20 kt
SIGMETs :   Divers  Orages  Givrage  Turbulence  Onde Orograph.  Cendres Volcan.







- Altitude de l'aérodrome : 177 ft
- Code IATA : BRI


LIBD - Palese Macchie Bari

DERNIER METAR :
  • 230020Z 29008KT CAVOK 25/19 Q1017

METARs EXPIRÉS :
  • 222350Z 28009KT CAVOK 25/19 Q1017
  • 222320Z 27006KT CAVOK 25/19 Q1018
  • 222250Z 30005KT CAVOK 25/20 Q1018
  • 222220Z 34006KT 320V020 CAVOK 26/20 Q1018

TAF TAF LIBD
Valide du 23 à 00h jusqu'au 24 à 00h UTC


222300Z 2300/2324 32008KT CAVOK 2305/2307 01015G25KT
Pas de NOTAMs connus pour ce terrain.



MET'MAP, la Météo Aéronautique d'un coup d'oeil ! - Copyright ORBIFLY Décembre 2007 - Disclaimer

ORBIFLY MET'MAP TEAM :

Programmation & Développement : Alexandra Zaïnal
Conception & Développement : Baudouin d'Aumeries
Co-Programmation & Développement : Marc-Olivier Méhu
Soutien technique & logistique : Manuel Goepfert

Contact : metmap@orbifly.com




SOURCES & CREDITS :

   NOAA